LiveATC.Net - Listen to live air traffic control over the Internet!


ICAO: KCTJ  IATA: CTJ   Airport: West Georgia Regional Airport-O V Gray Field
City: Carrollton   State/Province: Georgia
Country: United States   Continent: North America
KCTJ METAR Weather: KCTJ 281335Z AUTO 02006KT 10SM CLR 18/14 A3002 RMK AO2 T01810136
KCTJ Flight Activity (FlightAware)
KCTJ Airport Info   (iFlightPlanner)
KCTJ VFR Sectional Chart   (iFlightPlanner) 
KCTJ IFR Low Altitude Chart   (iFlightPlanner) 
KCTJ IFR High Altitude Chart   (iFlightPlanner) 

KCTJ/KLGC CTAF
Feed Status: UP   Listeners: 0
Listen in your browser - HTML5 player (in browser, HTML5)
Click here to listen with your own player (launches your MP3 player)
Archive Access: KCTJ/KLGC CTAF
FacilityFrequency
KCTJ/KLGC CTAF122.975

NOTICE

Unauthorized use prohibited. See LiveATC.net Terms of Service


Airport/ARTCC Code
Frequency Search
(e.g., 124.400, 128.75)
Site-wide search
 


Browse Feeds
Top 50 Feeds
HF Oceanic Feeds
Coverage Map
Bad Weather Areas

LiveATC FAQ
Offer LiveATC feed
Contact LiveATC.net
Press Inquiries

LiveATC on iPhone
LiveATC on Android

LiveATC Mobile
(Mobile browser)

ATC Audio Archives
Interesting Recordings

LiveATC Forums


Home Page
About LiveATC.net


Terms of Use
Privacy Policy

AIRMETs/SIGMETs

FAA Airport Status
NAS Status
Arrival Demand


Server Software By:
Icecast.org
Liquidsoap